View from above orbital plane
|
View from above satellite
|
Ground track
|
The orbit data is extracted from the following two-line orbital elements,
1 10861U 78045B 13140.46848346 .00057484 00000-0 45326-3 0 2851
2 10861 081.1893 139.9757 0006664 014.8583 345.2870 15.71171822926821
| Epoch (UTC): | 20 May 2013 11:14:36 |
| Eccentricity: | 0.0006664 |
| inclination: | 81.1893° |
| perigee height: | 351 km |
| apogee height: | 360 km |
| right ascension of ascending node: | 139.9757° |
| argument of perigee: | 14.8583° |
| revolutions per day: | 15.71171822 |
| mean anomaly at epoch: | 345.2870° |
| orbit number at epoch: | 92682 |
The dashed part of the orbit path shows where the satellite is in the earth's shadow,
|
|